AirNav   Air Wisconsin Up To $57,000 Bonus
 
 896 users online  

TS50 Austinia Airport
Texas City, Texas, USA

GOING TO TEXAS CITY?


FAA INFORMATION EFFECTIVE 08 OCTOBER 2020

Location

FAA Identifier: TS50
Lat/Long: 29-25-02.8360N 094-59-53.7330W
29-25.047267N 094-59.895550W
29.4174544,-94.9982592
(estimated)
Elevation: 15 ft. / 5 m (estimated)
Variation: 06E (1985)
From city: 5 miles NW of TEXAS CITY, TX
Time zone: UTC -5 (UTC -6 during Standard Time)
Zip code: 77590

Airport Operations

Airport use: Private use. Permission required prior to landing
Activation date: 05/1979
Control tower: no
ARTCC: HOUSTON CENTER
FSS: MONTGOMERY COUNTY FLIGHT SERVICE STATION
Attendance: UNATNDD
Wind indicator: yes
Segmented circle: no

Airport Communications

WX ASOS at GLS (12 nm SE): 119.275 (409-740-9248)
WX AWOS-3 at EFD (14 nm NW): 135.575 (713-847-4430)
WX ASOS at LVJ (14 nm NW): 118.525 (281-992-1853)
WX AWOS-3PT at T41 (15 nm N): 120.275 (281-471-2206)

Nearby radio navigation aids

VOR radial/distance  VOR name  Freq  Var
VUHr316/11.2SCHOLES VOR/DME113.0006E
MHFr232/15.2TRINITY VOR/DME113.6007E
IAHr146/37.1HUMBLE VORTAC116.6005E

Airport Services

Runway Information

Runway N/S

Dimensions: 2150 x 100 ft. / 655 x 30 m
Surface: turf
RUNWAY N  RUNWAY S
Traffic pattern: leftleft
Obstructions: 20 ft. trees30 ft. pline

Airport Ownership and Management from official FAA records

Ownership: Privately-owned
Owner: C MICHAEL ORR
2008 TEXAS AVE
TEXAS CITY, TX 77590
Phone 409-948-3461
Manager: C MICHAEL ORR
2008 TEXAS AVE
TEXAS CITY, TX 77590
Phone 409-948-3461

Airport Operational Statistics

Aircraft based on the field: 1
Single engine airplanes: 1
    

Additional Remarks

FOR CD CTC HOUSTON ARTCC AT 281-230-5622.

Instrument Procedures

There are no published instrument procedures at TS50.

Some nearby airports with instrument procedures:

KGLS - Scholes International Airport at Galveston (12 nm SE)
KEFD - Ellington Airport (14 nm NW)
KLVJ - Pearland Regional Airport (14 nm NW)
T41 - La Porte Municipal Airport (15 nm N)
KHOU - William P Hobby Airport (20 nm NW)
 
Loc | Ops | Rwys | IFR | FBO | Links
Com | Nav | Svcs | Stats | Notes
Area around TS50 (Austinia Airport)
 
Road maps at: MapQuest Bing Google
 
Aerial photo
No photo
 
Sectional chart

 
Airport distance calculator
Flying to Austinia Airport? Find the distance to fly.

From to TS50

Sunrise and sunset
Times for 30-Oct-2020
 Local
(UTC-5)
 Zulu
(UTC)
Morning civil twilight07:0912:09
Sunrise07:3312:33
Sunset18:3423:34
Evening civil twilight18:5823:58

Current date and time
Zulu (UTC)  31-Oct-2020 00:40:31
Local (UTC-5)  30-Oct-2020 19:40:31
 
METAR
KGLS 
11nm SE 
302352Z AUTO 02004KT 10SM CLR 16/08 A3019 RMK AO2 SLP224 T01610083 10189 20161 56007
KEFD 
14nm NW 
302350Z 00000KT 10SM CLR 16/07 A3019
KLVJ 
14nm NW 
302353Z AUTO 00000KT 10SM CLR 16/08 A3020 RMK AO2 SLP226 T01610078 10211 20156 55004
KT41 
15nm N 
310015Z AUTO 35003KT 10SM CLR 16/07 A3020 RMK AO2 T01600072
KHOU 
20nm NW 
302353Z 01005KT 10SM CLR 18/06 A3018 RMK AO2 SLP226 T01780056 10211 20172 55004
TAF
KGLS 
11nm SE 
301728Z 3018/3118 02012KT P6SM OVC023 FM302100 02008KT P6SM SKC FM310600 05007KT P6SM SKC
KEFD 
14nm NW 
302000Z 3020/0102 VRB06KT 9999 SKC QNH3020INS BECMG 3115/3116 VRB06KT 9999 SCT020 QNH3013INS TX20/3022Z TN10/3113Z
KHOU 
20nm NW 
302048Z 3021/3118 01006KT P6SM SKC FM310600 04003KT P6SM SKC
NOTAMs
Click for the latest NOTAMs
NOTAMs are issued by the DoD/FAA and will open in a separate window not controlled by AirNav.

 

 
 

Would you like to see your business listed on this page?

 If your business provides an interesting product or service to pilots, flight crews, aircraft, or users of the Austinia Airport, you should consider listing it here.  To start the listing process, click on the button below
 
Add a business
 

Other Pages about Austinia Airport

Update a link
 
Copyright © AirNav, LLC. All rights reserved. Privacy Policy  Contact